Wind_Speed
27 24 24 22 20 22 26 28 27 26 25 24 22 20 19 19 20 22 23 23 22 22 24 25 24 22 20 18 15 14 13 12 11 11 11 11 12 13 13 14 15 15 16 17 17 18 18 18 19 20 20 22 24 26 26 27 28 29 30 32 33 34 32 31 32 29 25 26 29 29 28 29 28 29 32 33 33 34 35 36 36 37 38 38 38
30 29 28 27 24 23 25 28 29 28 27 25 23 21 20 20 20 21 23 23 22 22 23 24 23 21 19 17 15 14 14 13 11 11 11 11 12 13 13 13 13 14 15 16 17 18 18 18 19 20 21 22 23 25 25 27 29 29 30 31 31 31 31 31 31 30 28 27 30 30 30 30 30 29 30 32 33 34 35 35 36 37 38 39 39
32 32 31 30 28 26 25 27 29 29 29 27 25 22 22 21 20 20 21 23 21 21 23 22 21 19 18 17 16 14 14 13 12 12 12 13 13 13 14 13 13 14 15 16 16 16 17 17 18 20 21 21 22 23 25 26 28 29 29 29 29 29 30 31 31 31 32 31 31 32 32 31 30 29 29 30 32 33 34 34 35 36 37 38 40
33 34 33 32 31 29 27 28 29 31 33 31 26 23 22 21 20 19 20 21 21 21 22 21 20 18 17 18 16 15 15 13 13 14 14 14 14 15 15 15 15 16 16 17 17 17 17 17 18 20 21 22 22 23 24 26 27 28 27 27 27 27 28 30 31 31 33 32 31 32 33 32 30 29 30 32 33 34 35 35 35 36 36 36 39
33 34 34 34 33 31 29 30 31 33 35 34 27 23 22 21 19 19 20 20 21 22 22 20 18 16 17 18 17 15 15 14 14 15 15 16 17 18 18 17 16 17 17 18 18 18 19 19 19 21 22 23 23 23 24 25 25 25 25 24 24 25 26 29 31 32 32 32 32 33 33 33 32 31 33 36 37 37 37 37 37 38 37 36 37
30 32 33 34 33 32 32 32 33 33 34 34 30 24 22 21 20 20 20 20 21 22 21 19 17 15 16 17 17 16 15 15 15 16 17 18 19 20 20 18 17 17 18 18 19 20 21 21 22 23 24 24 24 24 24 24 24 24 23 22 22 24 25 27 29 30 30 32 33 33 33 33 33 34 35 38 40 41 41 40 39 39 39 39 37
28 30 32 34 34 34 34 34 33 33 33 34 31 26 22 21 21 20 19 19 21 21 20 18 15 14 15 17 17 16 16 15 16 17 17 18 19 19 19 18 17 17 18 19 19 20 21 22 23 24 25 26 26 25 24 24 24 23 22 22 23 24 25 26 27 28 30 32 33 34 34 33 35 36 37 38 40 41 44 45 43 41 40 41 40
29 30 31 34 35 35 35 35 33 33 34 33 29 26 23 22 21 19 18 19 20 20 19 16 14 13 15 17 17 16 15 16 16 17 17 18 18 17 17 18 17 17 18 19 20 21 22 23 24 25 25 26 27 27 26 25 24 23 23 24 25 26 27 27 26 28 30 32 32 32 33 33 35 37 37 38 41 44 46 48 48 46 44 42 41
27 30 32 34 34 34 35 35 34 34 34 33 29 25 23 22 20 18 17 18 18 18 17 15 13 13 15 18 18 16 15 16 16 16 17 18 18 17 18 19 19 18 19 20 22 23 24 24 25 25 26 27 28 28 27 26 26 26 26 26 27 28 30 29 29 28 30 31 32 32 33 34 35 36 37 40 45 49 50 50 49 49 48 45 41
25 28 33 35 35 36 37 37 37 36 35 33 29 25 22 21 19 17 16 16 16 17 16 14 12 13 16 18 17 16 16 15 15 16 17 18 19 19 20 21 21 21 22 22 23 25 26 26 25 26 26 27 28 28 26 25 26 28 28 29 29 30 31 31 30 29 30 31 32 32 34 34 33 35 38 41 46 51 51 51 50 49 48 46 41
24 27 31 37 39 38 39 41 41 38 35 34 31 25 22 21 18 16 15 15 15 15 14 13 13 14 16 17 16 16 17 16 15 17 19 19 20 22 22 22 22 22 23 24 25 27 28 27 26 26 27 27 27 27 25 25 26 27 28 30 31 31 31 31 31 30 31 32 33 33 34 35 34 34 38 42 47 51 50 49 51 51 49 46 41
27 28 31 36 40 42 44 45 44 42 39 35 29 25 23 21 18 15 14 13 13 13 13 13 13 14 16 16 17 19 21 20 19 20 22 22 23 25 25 23 22 22 24 26 28 29 30 29 28 27 26 26 27 26 25 25 26 27 29 30 31 31 31 31 31 31 31 33 34 34 34 35 35 35 39 43 47 50 51 49 50 52 52 49 44
29 31 33 36 42 50 53 48 44 44 40 31 26 25 24 20 16 14 13 12 11 12 12 12 14 15 16 16 18 20 21 21 21 23 26 27 27 28 27 24 23 23 25 28 29 30 31 31 30 28 25 25 26 27 27 27 27 28 29 30 30 30 31 31 31 31 32 33 34 34 33 34 35 36 39 43 46 51 54 53 50 51 53 51 47
34 37 38 39 44 51 53 49 44 43 38 29 26 27 24 18 16 14 12 11 10 10 10 11 13 15 15 15 17 19 18 18 21 25 28 29 30 29 27 25 25 26 28 30 30 30 31 32 32 30 26 24 25 28 30 30 29 29 29 29 30 30 30 30 31 32 32 33 33 33 32 32 34 37 40 42 46 50 55 55 52 50 52 52 47
38 41 43 44 47 49 50 50 48 45 40 32 29 27 23 19 16 13 11 9 8 9 10 11 12 13 14 15 17 17 17 18 22 25 28 30 31 29 27 26 27 29 31 32 32 31 32 33 33 31 27 24 25 28 31 32 32 31 30 30 30 30 30 30 30 31 32 32 32 32 32 31 33 37 40 42 45 49 54 56 52 49 52 53 48
41 44 46 49 52 53 53 53 49 47 44 35 32 27 22 18 15 12 10 9 9 9 10 10 11 13 15 17 18 17 17 20 23 24 27 30 31 29 27 28 29 31 34 34 34 33 33 34 32 30 28 26 26 29 31 32 32 32 32 31 30 30 29 29 30 31 30 31 32 32 32 31 33 36 39 42 45 48 54 57 51 48 51 52 49
40 44 46 48 56 59 59 55 48 47 46 36 32 27 22 17 13 11 9 9 9 8 9 10 13 16 18 20 21 18 18 21 23 25 27 30 30 28 27 29 31 34 35 35 34 34 34 34 31 29 28 28 28 29 31 32 33 33 33 32 31 31 29 28 29 29 29 29 30 31 31 31 32 35 38 41 44 47 53 58 52 47 49 50 49
38 42 44 50 58 60 59 54 48 48 44 32 28 25 21 16 12 11 9 9 9 9 12 14 16 18 20 22 24 23 22 24 25 27 28 29 29 27 28 31 33 35 35 34 33 34 34 33 31 30 30 30 30 29 30 32 33 33 33 33 32 31 28 27 27 27 27 28 28 29 30 31 32 35 37 40 44 46 51 56 53 47 48 47 46
33 37 43 51 57 56 53 50 47 46 39 27 25 23 19 17 15 13 10 10 11 11 15 17 18 21 21 22 24 25 25 25 27 28 28 28 28 29 31 34 34 34 34 33 33 33 33 33 31 31 31 30 29 29 31 32 32 32 33 33 32 30 27 26 26 25 26 27 27 28 29 30 32 35 36 40 44 45 50 55 51 46 47 45 43
29 33 39 45 51 52 49 44 41 37 26 20 21 19 19 23 22 16 12 13 13 15 19 20 22 25 26 24 24 25 27 27 29 28 27 27 28 30 33 35 35 35 35 34 33 32 32 32 32 31 31 30 29 29 30 31 31 31 31 31 29 27 25 24 25 26 27 28 28 28 29 30 32 34 36 41 45 46 50 53 48 43 45 43 39
30 32 37 43 47 45 40 37 32 24 17 16 16 14 16 21 20 14 12 15 17 18 21 24 25 28 30 28 26 28 29 29 29 28 27 27 30 32 35 35 35 35 35 34 33 31 30 30 30 30 30 28 26 26 27 29 30 29 28 27 26 25 24 24 25 26 27 28 28 28 29 30 32 33 36 41 44 46 52 52 44 40 40 38 34
31 33 38 43 42 36 30 26 20 16 17 16 13 12 13 15 15 13 15 19 21 20 22 26 28 30 31 30 29 31 31 30 29 28 27 29 31 33 35 34 34 34 34 33 31 31 30 28 27 26 24 23 22 24 27 28 28 26 25 24 24 24 24 25 25 26 27 28 29 29 30 30 31 32 36 40 43 47 53 51 42 37 35 29 28
34 35 36 37 36 32 24 14 14 16 18 16 14 14 15 15 16 17 19 22 22 20 22 26 30 32 32 32 32 33 32 30 29 29 29 31 32 34 34 33 33 33 32 31 30 30 29 26 22 21 20 20 22 25 27 27 26 25 24 24 24 25 25 26 26 27 28 29 29 30 29 30 31 32 35 39 42 47 54 50 41 36 30 22 22
34 34 32 32 32 28 16 17 22 19 18 18 18 18 15 13 12 13 16 19 21 22 23 26 30 33 34 34 34 33 32 30 29 30 31 31 32 32 33 33 32 31 30 30 29 29 27 23 19 19 20 21 24 26 26 26 25 24 24 25 25 26 26 27 27 27 28 29 29 30 29 29 31 31 33 37 41 47 52 48 39 33 24 15 17
31 31 29 27 26 20 13 20 24 22 21 22 21 16 10 7 8 10 15 20 22 24 25 28 31 34 34 34 33 32 31 30 30 31 31 30 30 31 32 32 31 30 29 28 28 27 25 21 19 20 21 23 25 26 26 25 24 24 25 25 26 27 27 27 27 26 27 28 29 29 28 29 30 31 32 35 39 45 50 46 38 31 19 9 12
28 27 26 24 21 18 17 19 24 27 26 25 21 14 9 8 11 15 19 21 23 25 27 30 33 34 33 32 31 30 30 30 31 30 29 29 31 32 32 31 29 28 28 27 26 24 22 20 19 21 22 24 25 25 24 24 24 24 25 26 27 28 28 28 28 26 26 27 28 28 28 29 30 29 30 32 36 42 48 45 37 31 21 9 9
27 25 26 27 25 22 22 22 27 30 29 26 22 17 12 13 18 21 22 23 23 26 29 31 32 32 31 30 30 29 29 29 30 30 31 32 33 34 32 30 28 27 26 25 24 22 21 20 20 21 23 24 25 24 24 24 24 25 26 26 27 28 29 29 29 27 27 27 27 28 29 29 29 28 27 30 33 38 44 44 38 33 26 14 9
27 25 26 28 29 29 30 32 34 34 31 26 22 18 15 17 21 22 22 22 23 26 29 30 30 29 29 28 28 28 29 30 31 32 33 34 34 33 31 28 27 26 25 24 22 21 21 21 21 22 23 24 24 24 24 25 25 25 26 26 27 28 29 29 30 29 28 28 28 28 29 29 28 27 25 27 30 35 40 42 39 34 28 18 10
24 25 27 31 35 38 40 39 36 32 28 23 20 18 17 19 18 17 20 22 24 27 28 28 28 28 28 28 29 29 30 31 32 33 33 33 32 31 29 27 26 26 24 23 22 21 22 22 21 22 23 23 24 24 25 25 25 25 26 27 28 29 29 29 29 29 28 28 28 28 28 28 27 25 24 24 26 31 36 41 40 34 28 20 11
21 21 23 27 32 34 33 29 24 21 21 21 21 20 18 16 13 15 18 21 23 25 26 27 28 28 29 30 30 31 31 31 32 32 32 31 30 29 28 27 26 26 24 23 21 21 22 22 21 21 22 23 24 25 25 26 25 25 26 27 28 29 29 28 28 29 28 28 27 27 27 27 26 25 23 22 23 26 32 37 39 37 30 21 13
19 16 15 19 23 24 23 20 16 14 16 18 17 15 13 12 12 14 17 19 21 23 25 27 28 29 30 31 32 32 31 31 31 31 30 30 29 29 27 26 26 25 24 23 21 21 21 21 21 21 22 23 25 25 25 25 25 25 26 27 28 28 27 27 27 27 27 26 26 26 26 26 26 24 22 21 21 23 27 32 35 37 34 27 18
16 13 11 13 16 16 14 11 7 5 7 11 12 12 12 12 13 14 16 18 20 23 25 27 28 30 31 31 31 31 31 31 31 30 29 29 29 28 27 26 25 24 24 23 21 20 21 21 22 23 23 24 25 25 25 25 24 24 25 26 27 27 26 25 25 25 25 25 24 23 23 23 23 22 21 20 19 20 22 27 32 35 35 31 24
13 9 8 10 11 12 10 8 6 6 9 12 14 14 15 15 15 16 18 19 21 23 25 27 29 30 31 31 31 31 32 31 30 29 28 28 27 27 27 25 23 23 23 22 21 21 21 22 23 24 24 24 24 24 24 24 24 24 25 26 26 25 24 23 23 23 23 23 22 22 22 21 21 20 19 18 17 17 19 23 27 31 34 33 29
12 9 9 10 11 12 11 9 9 11 13 16 17 18 18 19 19 20 20 21 23 25 27 28 29 29 30 30 30 31 31 29 28 27 27 26 25 25 24 21 20 21 21 21 20 20 20 21 23 23 23 23 22 23 23 24 24 25 25 25 25 24 22 22 22 22 22 22 21 21 21 21 20 19 17 15 15 15 16 19 23 26 30 34 33
11 11 12 12 12 12 13 13 13 15 17 19 19 19 20 21 21 21 21 22 24 26 27 28 28 28 29 29 29 30 29 28 26 25 24 23 22 21 19 17 17 18 19 19 19 20 20 21 23 23 22 22 22 22 23 24 24 24 24 24 23 23 21 20 20 21 21 21 21 20 20 19 19 18 16 14 13 13 13 16 19 22 26 31 33
12 14 15 16 16 16 16 16 16 17 19 19 20 21 22 22 22 21 22 23 24 24 25 25 27 29 29 28 28 29 29 27 25 23 21 20 19 17 15 15 15 17 18 20 21 21 22 22 22 22 22 22 22 23 23 24 24 23 23 22 22 22 20 19 18 19 19 20 20 19 18 18 17 16 15 14 13 12 12 13 16 19 21 25 30
17 18 19 19 19 19 19 19 18 18 19 19 20 22 23 23 24 23 23 22 23 23 25 27 29 29 27 26 27 29 28 25 22 20 17 16 16 16 15 16 17 18 20 22 22 22 23 22 21 22 22 22 22 23 23 23 22 21 21 21 20 19 18 17 16 15 16 17 17 17 16 16 15 14 14 13 12 11 11 11 13 15 17 20 23
21 21 21 20 20 20 20 20 19 19 20 20 22 23 24 25 25 25 24 23 24 25 27 28 27 26 25 25 26 27 25 23 20 18 16 15 15 16 17 17 18 19 21 21 22 22 22 21 21 22 21 21 22 22 22 21 21 20 19 19 18 17 16 14 13 12 12 13 14 15 14 14 14 14 13 11 11 10 9 9 10 12 14 15 17
22 22 21 21 20 21 20 20 20 20 21 22 23 24 25 26 25 25 25 25 26 27 27 26 24 23 23 24 25 24 22 21 19 18 17 16 16 18 18 18 18 18 18 19 20 21 21 21 22 22 21 20 20 20 19 19 19 18 17 16 15 14 13 11 10 10 10 10 12 13 13 13 14 14 12 11 10 10 9 8 9 10 11 12 14
23 23 23 23 23 22 21 20 21 21 22 24 25 26 28 28 28 28 27 27 27 27 25 22 21 21 22 22 22 20 20 19 19 20 20 19 19 19 19 18 17 17 17 18 19 20 20 21 21 21 19 18 17 17 17 17 17 15 14 12 11 10 10 9 8 8 8 9 10 11 12 13 14 14 13 12 11 10 9 8 8 8 10 11 13
23 23 24 24 23 22 21 20 21 23 25 26 27 27 28 29 30 29 27 26 25 25 22 20 19 21 21 20 18 18 18 19 20 21 22 22 21 20 20 19 18 18 18 18 18 19 20 20 20 19 17 15 15 16 16 15 14 12 10 9 9 8 7 7 7 7 7 8 9 11 11 12 13 14 13 13 13 12 10 9 8 8 9 10 11
21 22 23 22 22 22 22 23 25 27 28 29 29 29 29 28 27 24 23 23 23 23 20 19 19 19 19 17 17 17 18 20 21 22 23 23 23 22 21 20 19 18 18 17 18 18 19 19 18 16 14 14 14 14 13 12 10 9 8 7 7 7 6 6 7 7 8 8 9 10 11 11 12 13 13 13 13 13 12 10 9 8 8 9 9
23 23 23 23 24 24 26 27 29 29 30 32 33 30 27 24 23 21 20 21 22 21 19 18 18 18 18 17 17 18 19 21 22 23 24 24 24 22 21 20 19 18 17 16 16 17 17 16 15 13 12 12 12 11 11 10 8 7 7 6 6 6 6 6 7 8 9 9 10 10 11 11 11 12 12 13 13 13 12 12 11 9 8 8 8
24 24 24 25 26 27 29 30 30 29 29 29 27 23 19 19 20 20 19 20 21 21 20 19 19 19 19 19 19 19 20 22 23 24 24 24 23 22 21 21 20 19 17 16 15 15 14 14 12 11 11 11 11 10 9 8 7 7 6 6 6 6 7 8 9 10 10 11 11 11 11 11 11 11 11 11 12 12 12 12 12 11 9 8 8
25 25 27 28 29 30 30 29 27 25 24 23 21 20 19 20 21 20 20 20 21 21 21 21 21 20 20 21 21 21 21 22 23 24 24 23 22 22 22 22 21 19 17 15 14 14 13 12 11 11 11 10 10 9 8 7 7 6 6 6 6 7 8 10 11 11 12 12 12 12 12 12 11 11 10 10 10 10 10 10 10 11 11 9 8
26 28 30 31 30 28 27 25 23 22 21 20 20 21 21 21 21 21 21 21 21 21 22 23 22 21 20 21 22 23 23 24 24 24 22 21 21 21 21 21 21 18 15 14 13 13 12 11 11 11 11 10 9 8 7 7 6 6 6 6 7 8 9 11 12 12 13 13 13 13 12 12 11 11 10 10 9 8 9 9 10 10 10 10 10
29 29 28 27 25 24 23 22 21 20 19 19 19 19 19 19 19 20 20 20 21 22 23 24 22 21 21 21 22 24 25 25 25 23 21 19 19 19 19 19 19 16 14 13 13 11 11 12 12 11 11 10 9 8 7 6 5 6 6 7 8 9 9 10 12 12 13 13 13 13 13 12 12 11 10 10 9 8 7 8 8 9 9 10 10
26 25 23 22 22 21 21 20 19 19 18 18 18 18 18 18 18 18 19 20 20 21 22 22 21 20 19 20 22 23 24 25 24 23 20 18 18 18 17 17 16 15 14 13 12 11 12 13 12 11 11 11 9 8 6 6 5 6 7 7 8 8 9 10 10 11 12 13 13 13 13 12 12 11 10 9 9 8 7 7 7 7 8 8 9
22 21 20 19 19 18 18 17 17 17 18 18 18 18 18 18 18 18 19 20 20 21 21 20 19 19 20 21 22 23 24 24 24 23 20 18 17 17 17 16 15 14 14 13 12 12 13 13 12 12 12 11 9 7 6 6 6 7 7 7 8 8 8 9 9 10 11 11 12 12 12 12 12 11 10 9 8 8 7 6 6 6 6 7 7
19 18 17 16 16 16 16 16 16 16 17 17 17 17 18 18 18 19 20 21 21 22 21 20 19 19 20 22 23 23 23 24 24 25 23 20 17 17 17 15 14 14 14 13 13 14 14 13 12 12 11 10 9 7 7 7 7 7 7 8 8 8 8 8 9 9 9 10 11 11 11 11 11 10 10 9 8 8 7 6 5 5 5 6 6
18 17 16 15 14 14 14 15 15 16 18 18 19 19 20 20 20 21 22 22 22 22 22 22 22 21 21 22 23 23 23 22 23 25 24 21 18 17 17 16 15 15 15 14 14 15 14 14 13 12 11 9 8 8 8 8 8 8 9 9 9 9 9 9 9 9 9 9 9 10 10 10 9 9 9 9 8 8 7 6 5 5 4 5 5
Wind_Direction
250 251 248 253 261 260 257 254 254 258 260 266 275 280 286 292 298 303 308 313 318 321 325 326 324 323 325 327 329 327 323 319 318 321 320 318 316 314 312 311 310 307 304 302 299 297 296 293 291 292 292 290 291 293 293 292 292 292 293 296 301 303 303 303 302 300 296 293 292 292 292 290 289 288 287 286 287 288 287 288 288 286 285 281 277
253 252 252 254 261 269 262 249 248 256 258 263 272 277 283 290 295 300 304 308 313 318 320 321 319 320 322 325 327 327 322 317 318 320 317 315 314 314 314 313 311 307 303 301 297 295 295 294 292 291 290 290 290 291 292 292 292 293 295 298 300 300 301 301 301 300 299 297 296 296 296 296 295 295 294 293 292 292 291 290 289 287 285 283 279
253 252 252 253 258 269 264 246 245 253 255 261 272 277 280 285 290 295 300 305 309 313 316 315 314 316 319 322 325 325 320 317 319 318 315 315 316 317 317 316 313 308 304 302 299 297 296 296 296 295 295 295 293 292 291 291 292 295 297 299 299 299 299 300 300 300 301 300 299 299 299 300 301 301 301 299 297 297 295 293 291 288 285 283 281
254 252 253 253 257 266 264 251 248 252 255 262 274 283 280 278 284 290 296 301 304 308 311 308 308 311 317 321 323 323 320 319 320 318 316 317 318 318 317 315 313 310 308 306 304 303 302 302 302 301 301 301 298 295 293 292 294 295 296 298 299 299 300 300 300 301 301 300 300 301 303 305 306 306 306 303 301 300 299 296 292 287 284 281 280
259 256 255 256 259 265 264 258 255 256 261 266 274 285 283 274 277 285 292 297 300 304 305 303 303 310 318 321 322 323 323 323 321 319 319 318 319 318 314 312 313 312 311 309 307 306 307 308 308 305 304 304 302 299 296 295 294 293 294 298 299 297 296 296 298 300 301 301 301 302 305 309 309 310 312 309 305 303 299 296 293 289 284 280 278
262 261 259 260 263 264 261 259 259 262 266 267 269 280 281 270 271 281 288 291 295 300 301 299 302 311 318 319 320 323 325 326 326 324 323 321 321 319 313 310 312 313 312 309 307 309 310 311 311 308 308 308 306 302 298 295 293 291 295 299 298 296 294 294 297 299 300 301 302 304 308 310 311 314 316 314 310 308 304 298 293 289 286 281 277
262 262 262 263 263 263 260 259 261 263 266 265 267 276 276 268 269 276 280 285 292 297 296 295 300 309 315 315 316 322 327 330 331 328 325 323 323 321 315 312 313 313 313 312 310 311 312 312 311 310 309 310 307 304 299 294 291 290 294 298 298 298 298 298 298 297 297 299 302 306 309 311 314 316 317 316 314 313 310 305 298 293 289 283 277
260 260 260 261 261 261 260 260 259 260 261 261 264 270 267 262 265 269 273 281 288 292 291 292 299 306 310 309 311 319 327 332 333 330 329 329 328 326 319 315 313 310 310 311 310 312 313 311 310 310 309 309 308 304 300 296 292 291 294 297 299 301 301 300 297 294 295 298 302 306 307 310 315 316 315 317 318 316 314 310 305 301 296 287 278
265 262 258 257 259 260 259 258 256 256 256 255 257 262 259 255 261 267 271 278 285 287 286 287 295 301 302 303 307 315 324 329 334 336 337 335 331 327 320 315 312 307 304 305 306 308 311 310 309 308 308 308 308 305 302 299 295 293 294 297 299 302 302 301 298 296 296 299 302 305 306 310 314 314 314 319 320 318 316 314 309 305 301 292 280
272 269 263 260 258 258 257 255 252 252 253 251 251 253 251 252 259 264 268 276 282 283 284 286 292 295 295 299 305 311 317 325 335 340 338 334 330 324 318 315 311 308 306 305 306 307 309 309 307 306 306 306 306 305 305 302 298 294 295 296 298 301 301 300 300 298 297 300 302 304 306 309 312 312 314 320 321 320 320 320 316 310 305 299 285
275 274 270 264 259 258 257 254 251 251 248 245 245 246 244 247 252 257 266 277 280 280 282 286 290 291 293 299 305 307 308 313 326 337 335 330 328 323 319 316 311 309 309 308 308 309 308 308 305 304 304 303 302 304 306 306 303 298 296 296 298 299 299 300 300 300 299 300 301 303 305 308 310 312 315 319 322 322 322 322 321 318 314 308 295
275 274 272 267 263 261 256 251 248 244 237 234 236 237 237 240 246 256 268 273 275 280 285 288 291 290 292 299 304 304 305 304 311 327 333 330 327 324 320 315 311 309 309 307 307 308 308 307 305 302 300 300 300 302 304 307 306 302 298 297 297 298 299 300 301 301 300 300 300 302 305 308 310 313 316 320 323 324 323 321 321 320 317 313 306
274 273 272 270 265 260 254 249 247 245 240 237 237 234 231 234 244 254 262 266 275 284 288 290 289 287 291 302 308 308 309 306 305 317 326 326 325 324 320 316 312 311 310 307 306 306 306 306 303 300 297 296 299 302 304 305 304 301 299 298 297 298 299 301 301 301 300 300 300 303 307 308 309 312 316 320 324 326 324 321 319 318 315 312 308
270 269 270 269 267 264 260 256 258 257 253 243 231 225 223 228 240 247 253 264 277 284 285 285 284 286 297 308 307 307 308 305 302 308 314 317 320 323 321 317 313 312 311 308 304 301 302 302 300 298 295 295 299 302 304 305 304 302 301 299 297 297 298 300 301 300 300 300 300 303 307 308 309 313 317 321 325 327 326 323 319 318 315 310 306
269 269 270 268 267 269 269 266 263 261 254 235 215 212 217 223 233 240 246 257 268 273 273 273 277 289 303 304 301 304 306 304 303 304 306 311 317 320 318 314 311 310 309 306 302 298 297 297 297 295 293 295 299 300 301 303 304 303 301 299 297 296 298 300 299 298 298 299 301 305 309 310 312 315 318 322 326 326 325 324 320 318 315 309 304
271 272 273 271 270 270 268 265 262 260 253 229 202 203 212 215 223 231 235 246 257 267 270 272 282 294 299 295 293 300 308 310 308 306 306 309 313 314 312 311 309 307 306 304 300 296 294 295 296 294 293 296 299 300 300 301 302 302 301 300 298 296 299 300 297 296 297 299 303 306 310 311 313 316 321 325 327 325 324 324 322 318 315 309 302
274 275 276 276 275 269 261 258 260 260 252 225 199 203 205 195 207 222 228 247 264 281 288 286 288 291 289 285 283 288 303 309 307 306 305 307 309 311 310 309 307 304 303 301 298 296 294 294 294 292 291 295 298 300 300 300 300 300 300 300 299 299 301 299 296 296 297 300 304 307 309 310 313 318 322 325 326 324 323 324 322 318 316 309 299
278 281 280 278 275 266 257 258 262 261 253 228 201 203 200 187 200 218 228 256 273 289 294 290 293 301 301 295 290 291 301 306 304 303 304 305 309 311 309 306 303 300 299 297 296 296 295 294 293 290 290 293 295 297 299 299 300 301 301 301 301 301 302 299 296 297 298 300 304 305 307 309 312 318 322 325 326 324 323 324 321 316 316 309 297
287 287 283 280 277 267 261 263 260 253 247 226 202 202 201 194 199 206 224 258 277 291 294 293 300 307 305 301 298 296 300 304 303 302 304 307 310 309 306 302 300 298 297 296 296 296 295 293 292 291 290 292 293 294 297 298 300 302 302 302 302 303 302 300 299 299 299 301 303 303 305 308 312 318 323 326 326 323 323 324 320 315 315 309 296
303 295 285 284 282 272 265 263 252 237 225 206 200 208 213 211 210 210 225 255 275 287 288 288 294 296 293 297 305 303 300 302 303 304 307 309 308 306 303 301 300 299 298 297 297 296 296 295 294 293 293 293 293 293 295 298 301 303 303 304 304 304 303 302 302 302 302 304 304 305 307 309 314 322 327 327 324 323 325 327 322 316 315 307 293
302 298 291 285 279 272 265 258 245 223 195 186 202 219 228 228 228 230 241 258 272 283 287 291 295 295 295 301 308 306 302 302 304 306 308 307 305 303 301 299 300 301 300 299 299 299 298 297 295 295 296 295 293 293 295 299 302 303 304 306 306 306 305 304 304 304 306 308 307 307 308 310 316 324 328 326 324 325 328 328 323 319 316 305 290
292 290 289 284 277 276 273 261 238 200 179 182 196 215 229 235 239 245 251 253 258 272 291 300 300 298 299 303 304 303 302 303 304 305 305 304 302 300 298 299 301 302 301 300 301 301 301 300 298 296 296 295 295 295 297 299 301 303 305 307 308 308 307 306 306 307 310 311 310 309 309 311 317 325 328 326 325 328 331 330 328 324 318 304 289
293 284 282 279 278 285 281 245 194 180 184 186 191 207 222 233 241 253 261 260 265 281 296 299 297 297 299 301 301 300 301 302 303 303 302 301 300 297 297 300 302 302 301 301 303 304 304 301 297 294 293 294 296 297 298 299 301 303 305 307 308 309 309 308 308 310 313 313 312 311 311 313 318 325 328 327 327 331 333 334 333 329 321 304 289
298 285 277 275 282 289 267 197 183 187 194 201 210 216 223 238 254 275 290 295 301 307 303 296 293 293 295 297 297 298 300 301 301 300 299 298 297 297 299 302 302 301 301 302 304 305 303 298 293 290 291 294 297 299 300 301 302 304 305 306 309 311 311 311 310 311 313 313 312 312 312 314 319 325 328 329 330 332 335 337 337 334 327 311 293
301 290 281 276 278 279 245 200 195 199 207 218 223 220 220 248 278 297 305 310 313 310 301 293 290 291 293 295 296 297 299 299 298 297 297 297 298 301 302 302 301 300 301 303 305 305 300 293 287 288 292 296 299 300 300 301 303 305 307 308 310 312 313 313 312 313 314 313 313 313 314 316 320 325 329 330 331 334 338 340 340 339 337 317 289
304 292 282 275 268 265 256 228 208 208 217 223 220 209 211 247 273 282 291 305 314 308 297 290 288 291 293 294 294 296 297 297 296 296 296 298 300 302 302 300 299 299 299 301 303 300 295 287 284 288 293 296 299 300 300 302 304 306 307 308 310 312 313 314 313 313 314 313 314 315 316 318 322 325 328 330 332 337 342 343 344 346 347 326 276
300 288 278 273 266 260 255 237 220 217 220 221 216 213 225 256 274 283 294 307 308 297 289 287 289 290 291 290 292 294 295 295 296 296 297 299 299 299 298 297 296 297 298 299 299 295 289 283 283 288 293 296 299 301 302 304 305 306 306 307 309 312 314 313 312 311 313 314 316 318 318 320 322 324 326 330 334 340 346 347 349 352 352 334 276
298 293 285 279 274 266 254 240 227 219 213 209 210 219 246 274 286 295 304 305 296 287 285 287 288 287 287 289 291 293 294 296 298 298 298 298 297 296 295 294 295 296 296 296 294 290 285 283 284 289 294 298 301 303 305 306 307 307 307 307 310 312 313 312 311 310 312 314 315 317 317 318 319 322 326 332 337 343 348 352 353 354 352 342 301
301 298 292 288 287 278 261 242 226 215 210 210 220 241 274 293 296 296 294 290 285 284 285 284 284 285 287 289 290 292 295 298 299 298 297 296 294 293 292 292 294 295 294 291 289 285 283 283 285 289 295 299 302 304 307 309 309 309 308 308 310 312 312 311 310 309 309 311 312 313 315 315 317 322 327 333 339 344 350 354 357 356 353 348 329
300 299 296 294 293 287 271 255 246 246 250 254 260 274 294 302 290 280 281 282 284 286 285 284 284 286 287 288 289 292 294 296 297 296 295 294 293 291 289 290 291 291 290 287 284 280 280 282 285 290 295 299 302 305 307 308 308 308 307 308 309 311 311 311 310 308 308 309 309 311 313 314 316 321 327 332 339 346 352 355 358 360 359 354 339
303 308 307 296 290 287 280 273 272 271 267 268 274 285 294 292 283 282 284 284 285 285 284 284 284 285 286 288 289 289 291 293 295 295 294 293 291 289 288 288 288 288 286 283 279 277 277 280 285 289 293 298 301 302 304 305 306 305 305 306 308 310 311 310 309 308 307 308 309 310 312 313 316 320 327 333 338 347 353 356 359 2 5 4 357
308 313 305 288 280 278 275 272 270 266 264 273 283 290 292 291 288 285 283 283 284 283 282 282 283 284 286 288 288 287 288 291 293 294 294 292 290 288 287 287 286 285 282 280 278 276 277 281 284 288 292 296 298 299 300 302 304 303 304 306 308 310 311 311 310 309 308 308 310 311 312 314 316 320 326 332 337 345 353 358 1 4 6 9 11
300 293 275 268 270 275 277 278 282 283 281 286 293 297 296 292 287 282 283 286 287 285 283 283 284 285 287 288 288 288 288 290 293 294 294 293 289 287 286 285 284 282 279 278 278 278 280 284 286 290 293 296 296 297 297 300 302 304 304 306 309 310 311 311 311 311 310 311 313 314 315 318 320 323 327 330 334 342 351 358 2 4 5 8 12
282 266 259 264 270 275 278 279 282 285 288 293 297 295 290 285 282 281 282 285 287 286 285 285 286 287 288 289 290 289 289 291 294 296 295 293 289 286 285 283 279 277 276 277 280 282 285 288 290 292 296 298 298 298 298 300 303 305 306 307 309 310 311 312 312 312 311 312 314 315 317 319 321 325 327 327 330 339 349 356 -0 3 5 8 11
272 263 264 268 273 278 282 286 289 292 294 295 295 291 286 282 279 277 277 280 283 283 284 285 286 288 290 291 292 291 291 293 296 296 293 289 285 283 281 277 273 274 278 282 286 288 290 291 293 295 297 299 300 300 300 302 304 305 306 307 308 310 311 312 312 312 311 311 312 313 315 318 321 325 328 329 329 335 346 355 359 2 5 8 11
268 265 267 269 273 278 284 288 291 292 292 292 289 286 283 278 274 272 275 280 283 283 283 283 284 287 291 292 291 291 293 295 297 294 289 283 278 276 274 273 274 279 283 286 289 291 292 293 293 295 296 298 300 301 301 302 303 305 306 307 307 309 311 312 312 312 311 311 312 314 315 319 322 325 329 330 329 332 342 353 359 3 6 9 11
279 277 275 276 278 281 286 290 292 290 288 285 282 280 279 277 273 271 273 279 282 282 280 280 282 287 290 290 290 292 294 296 295 289 282 276 274 275 277 279 281 283 285 288 290 292 293 293 292 293 295 297 299 300 301 302 304 305 306 306 307 308 311 313 313 315 314 313 314 317 319 322 325 327 329 330 328 328 337 348 355 -0 6 11 12
287 285 281 281 283 286 288 291 291 289 286 284 282 280 279 279 276 273 273 277 280 279 279 280 283 286 287 287 289 292 293 292 288 281 275 274 276 280 283 284 284 285 286 287 289 290 290 290 290 291 293 295 297 299 301 302 305 305 305 306 307 309 312 316 320 322 321 320 321 325 329 331 332 332 332 333 331 328 330 340 350 356 -0 8 14
287 283 281 281 285 288 289 291 291 289 287 287 286 283 280 279 278 276 276 279 280 280 281 282 284 284 284 286 289 289 286 283 279 276 276 277 279 281 283 283 284 284 284 284 285 286 286 287 288 289 292 294 296 299 301 302 303 304 304 305 307 310 314 322 329 331 331 332 334 336 340 343 343 341 340 341 340 335 330 332 340 350 356 1 11
283 278 278 281 284 287 289 290 290 290 290 290 288 285 283 281 280 279 280 280 280 280 282 282 282 282 283 284 285 282 275 270 270 273 277 278 276 276 277 280 282 285 284 282 282 282 282 284 286 288 291 294 296 298 300 301 301 302 303 304 307 312 318 327 334 336 339 343 345 346 350 352 352 350 352 355 353 344 336 331 332 342 355 1 6
278 278 281 283 284 287 290 291 290 290 291 290 288 286 285 283 279 276 277 277 277 277 278 278 278 279 280 279 277 270 263 261 264 270 274 275 275 274 276 279 284 289 288 284 280 279 281 283 285 287 291 295 296 297 297 297 297 299 301 304 308 314 321 327 333 337 342 349 352 353 353 355 355 355 358 4 4 357 349 341 335 339 350 358 3
276 281 285 288 290 292 292 292 290 290 290 291 289 287 286 283 279 274 273 274 274 274 275 276 276 277 276 272 266 260 258 259 263 266 269 273 275 276 279 283 289 292 290 284 280 279 281 282 284 287 291 293 293 292 290 290 291 295 300 304 309 315 320 327 332 337 345 350 352 351 351 351 352 354 358 4 7 6 1 354 347 343 344 349 358
280 285 287 290 292 291 290 290 291 290 292 292 289 283 278 277 277 276 275 274 272 271 273 274 274 274 273 269 264 259 258 260 263 266 269 272 275 278 282 288 293 294 291 287 284 282 281 281 284 287 289 287 284 281 281 283 287 293 298 304 310 315 321 329 331 334 340 343 342 341 342 342 342 347 352 357 2 5 6 4 360 354 347 346 351
280 284 288 289 290 290 290 291 292 291 290 290 287 281 276 276 277 276 274 271 269 270 272 274 273 273 273 271 267 263 261 262 265 268 271 273 276 280 284 290 293 294 292 290 288 283 280 280 283 284 280 275 271 269 271 276 283 290 296 303 310 316 322 326 326 328 333 334 331 330 331 330 331 336 342 348 353 358 2 5 5 3 -0 355 349
278 284 289 290 291 293 293 293 294 292 289 286 284 282 281 280 277 273 270 269 269 271 272 272 271 271 271 271 270 268 268 270 272 274 274 276 278 281 285 289 292 292 290 287 285 280 277 277 277 272 266 261 260 261 264 269 277 284 291 300 309 315 318 319 321 323 326 326 325 325 325 324 324 327 330 333 339 347 353 359 3 6 8 6 357
284 289 291 292 293 293 293 294 295 293 290 287 285 284 284 282 279 277 276 273 271 271 270 269 267 266 266 268 270 272 276 279 280 280 280 279 278 280 283 285 287 288 286 281 278 274 271 268 264 258 254 252 252 254 258 262 269 279 289 299 307 312 315 316 317 320 322 322 322 323 324 324 323 323 323 322 325 332 342 350 357 2 6 8 7
289 291 292 292 292 292 293 294 294 292 290 287 285 283 282 282 282 282 281 278 276 274 273 273 272 271 268 266 267 270 275 278 281 283 283 280 276 276 277 278 281 283 281 276 270 263 258 257 254 250 248 247 245 245 248 253 263 277 289 297 303 308 312 315 315 316 318 321 322 322 324 326 327 327 325 321 320 324 333 341 346 352 358 4 9
290 290 291 291 290 290 291 291 290 290 289 287 286 285 285 285 287 288 287 286 283 280 278 279 280 278 273 268 267 271 275 279 281 283 282 277 273 270 269 272 277 280 277 270 261 252 249 250 248 244 243 241 238 237 241 250 264 277 285 292 299 304 309 312 313 314 316 319 320 322 325 327 329 333 334 328 323 323 328 330 332 339 348 356 3
289 289 290 290 291 291 291 290 290 289 288 288 288 288 287 288 289 290 290 290 288 284 282 281 280 276 271 270 272 276 279 281 283 283 281 276 269 264 263 266 271 274 271 263 252 245 246 246 243 241 238 234 230 231 240 253 267 276 282 289 296 302 306 310 311 313 315 316 318 320 323 327 331 336 341 339 332 329 329 326 323 326 337 346 355
287 287 288 289 290 290 289 289 288 287 286 286 287 286 285 286 286 286 287 288 287 285 284 282 279 277 276 277 278 279 281 283 284 283 282 277 266 257 256 259 263 265 262 254 245 243 245 244 240 236 232 227 227 234 244 255 266 275 282 289 294 297 302 307 309 310 311 313 314 316 320 326 331 335 340 343 342 340 339 335 328 326 330 336 344
287 289 291 291 291 290 291 291 289 287 287 287 287 286 286 285 283 282 282 283 284 285 284 282 281 281 281 282 282 282 283 284 283 282 282 278 266 252 248 251 254 254 252 246 241 240 242 241 237 232 228 225 229 237 245 255 266 275 281 286 290 295 299 302 304 305 305 307 310 312 315 321 326 329 334 339 342 345 347 345 339 335 333 330 333
Height
3171 3171 3172 3172 3173 3173 3174 3174 3174 3174 3175 3175 3175 3175 3174 3174 3173 3173 3172 3171 3170 3169 3168 3167 3165 3163 3162 3161 3160 3159 3158 3157 3156 3155 3153 3152 3151 3150 3149 3148 3147 3146 3145 3144 3143 3142 3141 3140 3139 3138 3137 3136 3135 3133 3132 3130 3128 3127 3125 3124 3123 3121 3119 3117 3115 3115 3116 3114 3111 3111 3111 3109 3109 3109 3106 3105 3104 3102 3101 3099 3097 3095 3093 3092 3091
3168 3169 3169 3169 3169 3170 3170 3170 3171 3171 3172 3172 3172 3172 3172 3171 3171 3170 3170 3169 3167 3166 3166 3164 3163 3161 3159 3158 3157 3156 3155 3154 3153 3152 3151 3150 3149 3148 3146 3145 3144 3143 3142 3142 3140 3139 3138 3137 3136 3135 3134 3133 3132 3130 3129 3127 3125 3124 3122 3120 3120 3118 3115 3114 3112 3110 3110 3110 3108 3107 3106 3105 3104 3104 3103 3101 3099 3097 3096 3095 3093 3090 3088 3086 3085
3165 3166 3166 3167 3167 3167 3167 3167 3167 3168 3168 3169 3169 3169 3169 3168 3168 3167 3167 3166 3165 3164 3163 3162 3160 3159 3157 3155 3154 3154 3152 3151 3150 3149 3148 3148 3146 3145 3144 3143 3142 3141 3140 3139 3138 3136 3135 3134 3133 3131 3130 3129 3128 3127 3125 3123 3122 3120 3119 3117 3116 3115 3113 3110 3109 3106 3105 3105 3104 3102 3101 3100 3100 3099 3098 3096 3094 3092 3090 3089 3087 3085 3083 3080 3078
3162 3163 3164 3164 3164 3163 3163 3163 3164 3164 3165 3165 3166 3166 3165 3166 3165 3165 3165 3164 3163 3162 3161 3160 3158 3157 3155 3153 3152 3151 3150 3148 3147 3146 3146 3145 3144 3143 3141 3140 3139 3138 3137 3136 3135 3133 3132 3131 3130 3128 3127 3126 3125 3124 3122 3120 3119 3117 3116 3114 3112 3111 3110 3108 3105 3103 3101 3099 3099 3097 3095 3095 3095 3094 3093 3090 3089 3087 3085 3083 3081 3079 3077 3075 3072
3159 3160 3160 3161 3160 3159 3159 3159 3160 3161 3161 3161 3162 3162 3162 3163 3163 3162 3162 3161 3160 3160 3159 3158 3156 3154 3152 3151 3150 3149 3148 3147 3146 3145 3144 3143 3142 3140 3139 3138 3137 3136 3135 3133 3132 3130 3129 3128 3127 3125 3124 3123 3122 3120 3119 3117 3115 3114 3112 3111 3109 3108 3107 3105 3102 3100 3097 3095 3094 3093 3091 3090 3090 3090 3088 3085 3083 3081 3079 3077 3074 3071 3069 3068 3066
3156 3157 3157 3157 3156 3156 3156 3156 3157 3157 3158 3158 3159 3159 3160 3160 3160 3160 3160 3159 3158 3157 3156 3155 3153 3151 3150 3148 3148 3147 3146 3145 3144 3143 3142 3140 3139 3138 3137 3136 3135 3134 3133 3131 3129 3128 3126 3125 3123 3122 3120 3119 3118 3117 3115 3113 3112 3111 3109 3108 3106 3105 3103 3102 3099 3096 3094 3092 3090 3089 3088 3086 3085 3084 3083 3080 3077 3074 3071 3069 3068 3066 3062 3060 3059
3152 3153 3153 3153 3153 3152 3152 3153 3154 3154 3155 3155 3155 3156 3157 3158 3157 3157 3156 3156 3155 3154 3153 3152 3150 3148 3147 3146 3146 3145 3144 3143 3142 3141 3139 3138 3137 3136 3134 3133 3132 3132 3131 3129 3127 3125 3124 3122 3120 3119 3117 3116 3114 3113 3111 3110 3108 3107 3106 3105 3103 3101 3100 3098 3096 3093 3091 3088 3086 3085 3084 3082 3081 3079 3077 3075 3072 3069 3065 3060 3058 3058 3056 3053 3051
3149 3149 3149 3149 3148 3148 3149 3149 3150 3151 3151 3151 3152 3153 3153 3154 3154 3153 3153 3153 3152 3151 3150 3149 3147 3146 3145 3144 3144 3143 3142 3140 3139 3138 3137 3136 3134 3133 3132 3131 3130 3129 3128 3127 3125 3123 3121 3119 3117 3116 3114 3112 3111 3109 3108 3106 3105 3104 3103 3102 3100 3098 3096 3094 3092 3090 3087 3085 3083 3082 3080 3078 3077 3075 3073 3070 3066 3063 3060 3055 3050 3048 3047 3045 3044
3144 3145 3144 3144 3144 3144 3144 3145 3146 3146 3146 3147 3149 3149 3149 3149 3150 3150 3150 3150 3149 3148 3147 3146 3144 3143 3143 3142 3141 3139 3139 3138 3137 3135 3134 3133 3131 3130 3129 3128 3127 3126 3125 3124 3122 3120 3118 3116 3114 3113 3111 3109 3108 3106 3105 3103 3102 3101 3100 3098 3096 3094 3092 3090 3088 3086 3084 3082 3080 3078 3076 3075 3073 3070 3068 3065 3061 3056 3053 3049 3045 3041 3037 3035 3036
3140 3140 3140 3139 3139 3139 3139 3140 3140 3141 3141 3143 3144 3144 3145 3146 3147 3147 3147 3147 3146 3145 3144 3143 3141 3141 3140 3139 3138 3137 3136 3135 3134 3133 3131 3130 3129 3127 3126 3125 3124 3123 3121 3120 3118 3117 3115 3113 3111 3110 3108 3106 3105 3103 3102 3101 3099 3097 3096 3095 3093 3091 3089 3086 3084 3082 3080 3078 3076 3074 3072 3071 3070 3067 3063 3060 3056 3051 3046 3042 3038 3034 3029 3024 3025
3137 3137 3136 3135 3134 3134 3134 3133 3134 3135 3136 3138 3139 3140 3142 3143 3144 3144 3144 3144 3143 3143 3142 3140 3139 3138 3137 3136 3135 3134 3134 3133 3131 3130 3129 3127 3126 3125 3124 3123 3121 3119 3118 3116 3114 3113 3111 3110 3108 3106 3105 3103 3102 3101 3099 3098 3096 3095 3093 3091 3089 3087 3085 3083 3080 3078 3076 3074 3073 3071 3069 3067 3066 3063 3059 3055 3051 3045 3041 3037 3032 3027 3023 3017 3014
3134 3133 3132 3130 3130 3129 3127 3126 3126 3127 3129 3132 3135 3137 3139 3140 3141 3141 3141 3141 3141 3140 3139 3137 3136 3136 3134 3133 3132 3132 3131 3130 3129 3128 3127 3125 3123 3122 3121 3120 3118 3116 3115 3113 3111 3109 3108 3106 3104 3103 3101 3099 3098 3097 3096 3095 3093 3091 3090 3088 3086 3084 3082 3079 3077 3075 3073 3071 3068 3067 3066 3063 3060 3058 3055 3051 3046 3040 3035 3032 3028 3022 3017 3012 3008
3130 3129 3127 3126 3124 3123 3122 3122 3122 3122 3127 3131 3134 3135 3136 3137 3138 3138 3138 3138 3138 3137 3136 3135 3134 3133 3131 3130 3130 3130 3129 3128 3127 3126 3124 3123 3121 3119 3118 3116 3115 3113 3112 3110 3108 3106 3104 3102 3100 3099 3097 3096 3094 3093 3092 3091 3090 3088 3087 3085 3083 3081 3078 3076 3073 3071 3069 3067 3064 3063 3062 3059 3056 3054 3051 3046 3041 3035 3029 3025 3022 3017 3012 3007 3003
3126 3125 3123 3120 3118 3117 3118 3121 3121 3121 3125 3129 3131 3132 3133 3134 3134 3135 3135 3135 3135 3134 3133 3132 3131 3130 3129 3128 3128 3128 3127 3125 3124 3123 3122 3120 3118 3116 3114 3113 3111 3110 3109 3107 3105 3103 3101 3098 3096 3095 3094 3092 3091 3089 3088 3087 3086 3085 3083 3082 3080 3078 3075 3073 3070 3067 3065 3064 3061 3059 3058 3056 3052 3049 3046 3042 3037 3030 3024 3019 3015 3011 3005 3001 2998
3121 3120 3118 3116 3113 3111 3114 3116 3117 3118 3121 3123 3125 3127 3129 3130 3132 3133 3132 3132 3132 3131 3131 3130 3128 3127 3126 3126 3125 3125 3124 3123 3121 3121 3119 3117 3115 3112 3111 3109 3108 3107 3105 3104 3101 3099 3097 3095 3093 3091 3090 3089 3088 3086 3084 3083 3082 3081 3080 3078 3076 3074 3072 3070 3067 3064 3062 3060 3058 3056 3054 3052 3048 3045 3042 3038 3033 3028 3021 3015 3011 3006 2999 2993 2991
3117 3115 3113 3111 3109 3107 3108 3110 3111 3113 3115 3117 3119 3122 3124 3127 3129 3129 3129 3129 3129 3128 3128 3127 3125 3124 3123 3123 3122 3121 3121 3120 3119 3118 3116 3114 3112 3109 3108 3106 3105 3104 3102 3100 3098 3096 3093 3091 3089 3087 3086 3086 3084 3083 3081 3079 3078 3077 3075 3074 3072 3071 3069 3067 3064 3061 3059 3057 3055 3052 3050 3048 3045 3042 3038 3034 3030 3025 3017 3011 3007 3002 2994 2987 2983
3113 3111 3110 3108 3104 3102 3102 3103 3107 3109 3109 3110 3115 3118 3120 3122 3124 3125 3125 3125 3125 3125 3124 3123 3122 3121 3120 3118 3117 3117 3117 3117 3115 3114 3113 3111 3109 3106 3104 3103 3102 3100 3099 3097 3094 3092 3090 3087 3085 3084 3083 3082 3080 3079 3077 3076 3074 3073 3071 3069 3068 3066 3065 3063 3060 3058 3056 3054 3052 3049 3046 3044 3042 3039 3035 3031 3027 3021 3012 3005 3001 2997 2989 2982 2976
3110 3109 3107 3103 3098 3097 3098 3099 3102 3104 3106 3109 3112 3115 3116 3118 3119 3120 3121 3121 3121 3121 3120 3119 3118 3117 3116 3114 3115 3115 3114 3113 3112 3110 3109 3107 3104 3102 3100 3099 3098 3096 3095 3093 3091 3088 3086 3083 3082 3080 3079 3078 3076 3075 3074 3072 3071 3069 3067 3065 3063 3062 3061 3059 3057 3055 3053 3050 3048 3046 3043 3041 3038 3035 3032 3028 3023 3018 3010 3002 2996 2991 2984 2977 2972
3108 3106 3101 3096 3094 3093 3094 3096 3097 3099 3104 3108 3110 3110 3112 3113 3113 3115 3117 3118 3117 3117 3116 3115 3115 3114 3112 3112 3113 3112 3111 3109 3108 3106 3104 3102 3099 3098 3096 3095 3094 3092 3090 3089 3087 3084 3082 3079 3078 3076 3075 3073 3072 3071 3070 3069 3067 3065 3063 3061 3059 3058 3056 3054 3052 3051 3049 3047 3045 3043 3041 3038 3035 3031 3027 3023 3018 3014 3008 3000 2993 2986 2979 2973 2968
3105 3101 3096 3092 3091 3090 3090 3093 3094 3095 3102 3107 3108 3108 3109 3109 3109 3111 3113 3114 3114 3113 3113 3112 3112 3111 3109 3108 3109 3108 3106 3105 3103 3101 3099 3097 3095 3094 3092 3091 3089 3088 3086 3084 3082 3080 3078 3076 3074 3072 3071 3070 3069 3068 3066 3065 3063 3061 3059 3057 3055 3054 3052 3050 3049 3047 3045 3043 3041 3039 3037 3034 3031 3027 3022 3018 3014 3009 3004 2997 2989 2982 2975 2968 2964
3100 3096 3091 3088 3088 3087 3087 3089 3091 3094 3100 3105 3107 3107 3107 3108 3110 3110 3110 3110 3110 3110 3109 3108 3108 3108 3106 3104 3103 3102 3101 3100 3098 3096 3094 3093 3091 3090 3088 3087 3085 3084 3082 3080 3078 3076 3074 3072 3070 3069 3067 3066 3065 3064 3063 3061 3060 3058 3056 3054 3052 3050 3048 3047 3045 3043 3041 3039 3037 3035 3032 3029 3026 3023 3018 3014 3009 3004 2998 2991 2983 2977 2970 2964 2961
3095 3091 3087 3086 3086 3087 3087 3088 3091 3095 3099 3102 3104 3105 3105 3107 3107 3106 3105 3105 3106 3106 3105 3104 3104 3104 3103 3100 3099 3098 3097 3096 3094 3092 3091 3089 3087 3086 3084 3083 3082 3080 3078 3076 3074 3072 3070 3069 3067 3065 3064 3063 3062 3061 3060 3058 3057 3055 3053 3051 3049 3047 3045 3043 3042 3040 3038 3035 3033 3031 3028 3025 3022 3019 3015 3010 3005 2999 2993 2985 2978 2971 2966 2961 2958
3090 3087 3086 3086 3086 3087 3089 3092 3094 3096 3097 3098 3099 3101 3101 3102 3102 3102 3102 3103 3103 3103 3102 3101 3100 3099 3098 3096 3095 3094 3093 3092 3090 3088 3087 3085 3084 3082 3081 3079 3078 3076 3074 3072 3070 3068 3066 3065 3064 3063 3061 3060 3059 3058 3056 3055 3054 3053 3051 3048 3046 3044 3043 3041 3038 3036 3034 3032 3029 3027 3025 3021 3018 3015 3011 3007 3001 2995 2988 2980 2973 2967 2961 2958 2956
3085 3084 3085 3086 3086 3087 3090 3092 3092 3092 3094 3094 3095 3095 3097 3098 3099 3099 3100 3100 3100 3099 3098 3097 3096 3095 3093 3092 3091 3090 3089 3088 3086 3085 3083 3082 3080 3079 3077 3076 3074 3072 3070 3068 3066 3065 3063 3062 3061 3060 3059 3058 3056 3055 3053 3052 3051 3050 3048 3046 3044 3042 3040 3038 3035 3033 3031 3029 3026 3024 3021 3018 3015 3012 3008 3003 2997 2992 2985 2978 2971 2965 2959 2955 2953
3084 3082 3083 3084 3084 3084 3087 3089 3089 3090 3091 3092 3093 3093 3093 3094 3095 3095 3096 3096 3096 3095 3094 3093 3092 3090 3089 3088 3087 3086 3085 3084 3083 3082 3080 3078 3077 3075 3073 3072 3070 3068 3066 3064 3063 3062 3061 3060 3059 3058 3056 3055 3053 3052 3050 3049 3048 3046 3044 3042 3041 3039 3037 3035 3032 3030 3028 3026 3023 3021 3018 3015 3012 3009 3005 3001 2996 2990 2983 2975 2969 2963 2957 2953 2951
3084 3082 3082 3083 3082 3082 3084 3085 3086 3086 3086 3088 3089 3089 3089 3090 3091 3091 3092 3092 3091 3091 3090 3089 3088 3086 3085 3084 3083 3082 3082 3081 3079 3078 3076 3075 3073 3072 3070 3069 3067 3065 3063 3062 3061 3059 3058 3058 3057 3055 3054 3052 3051 3049 3048 3046 3045 3043 3041 3039 3038 3036 3034 3032 3029 3027 3025 3023 3020 3018 3015 3012 3009 3007 3003 2999 2994 2989 2982 2974 2967 2961 2956 2952 2951
3082 3081 3081 3081 3081 3081 3082 3082 3082 3082 3083 3084 3084 3084 3084 3086 3087 3088 3088 3088 3087 3087 3086 3085 3084 3083 3081 3080 3079 3079 3078 3077 3075 3073 3072 3071 3069 3068 3067 3065 3064 3062 3060 3059 3058 3057 3056 3055 3054 3053 3051 3049 3048 3046 3045 3043 3042 3040 3038 3036 3035 3033 3031 3029 3026 3024 3022 3020 3017 3015 3012 3009 3007 3005 3002 2998 2993 2988 2982 2974 2967 2961 2956 2952 2950
3079 3080 3079 3079 3078 3078 3077 3076 3075 3075 3076 3077 3078 3080 3081 3083 3085 3085 3084 3084 3083 3083 3082 3081 3080 3079 3078 3077 3076 3075 3074 3072 3071 3069 3068 3067 3066 3064 3063 3062 3060 3059 3057 3056 3055 3054 3053 3052 3051 3050 3048 3047 3045 3043 3041 3040 3038 3037 3035 3033 3032 3030 3028 3026 3024 3021 3019 3017 3014 3012 3010 3007 3005 3003 3000 2996 2992 2987 2982 2976 2969 2962 2957 2954 2951
3078 3078 3078 3077 3076 3074 3072 3069 3069 3071 3072 3074 3076 3078 3080 3081 3082 3082 3081 3081 3080 3080 3078 3077 3076 3075 3074 3073 3072 3070 3069 3068 3067 3066 3065 3064 3062 3061 3060 3058 3057 3056 3054 3053 3052 3052 3051 3050 3049 3047 3046 3044 3042 3040 3038 3037 3035 3034 3032 3030 3028 3027 3025 3023 3021 3019 3017 3014 3012 3010 3008 3005 3003 3001 2998 2995 2991 2987 2982 2977 2971 2964 2959 2955 2952
3077 3077 3076 3075 3073 3072 3071 3071 3072 3075 3076 3077 3078 3078 3078 3078 3078 3078 3078 3077 3077 3076 3075 3074 3073 3072 3071 3070 3068 3067 3066 3065 3064 3063 3062 3060 3059 3057 3056 3055 3054 3053 3051 3050 3050 3049 3048 3047 3046 3045 3043 3041 3039 3037 3036 3034 3033 3031 3029 3028 3026 3024 3022 3020 3018 3016 3014 3012 3010 3007 3005 3003 3001 2999 2996 2993 2990 2986 2982 2978 2972 2966 2960 2956 2953
3075 3074 3073 3073 3073 3073 3073 3073 3073 3073 3074 3076 3077 3076 3076 3075 3075 3075 3074 3074 3073 3072 3071 3070 3070 3069 3067 3066 3064 3063 3062 3062 3061 3060 3058 3057 3055 3054 3053 3052 3051 3050 3048 3047 3047 3046 3045 3044 3043 3042 3040 3039 3037 3035 3033 3032 3030 3029 3027 3025 3023 3021 3020 3018 3016 3014 3012 3010 3008 3005 3003 3001 2999 2997 2994 2992 2989 2986 2983 2979 2975 2970 2963 2958 2954
3072 3071 3071 3071 3072 3072 3071 3071 3071 3071 3072 3074 3074 3073 3072 3072 3072 3072 3071 3071 3070 3069 3068 3067 3066 3065 3063 3062 3061 3060 3059 3059 3058 3056 3055 3053 3052 3051 3050 3049 3048 3046 3045 3044 3044 3043 3042 3041 3040 3039 3038 3036 3034 3032 3031 3029 3028 3026 3025 3023 3021 3019 3017 3016 3014 3012 3010 3008 3006 3004 3001 2999 2997 2995 2993 2990 2988 2985 2983 2980 2976 2972 2967 2962 2957
3069 3069 3070 3070 3071 3070 3070 3069 3069 3070 3071 3071 3070 3070 3069 3069 3069 3069 3068 3067 3067 3066 3064 3063 3062 3061 3060 3059 3057 3056 3056 3055 3054 3052 3051 3049 3048 3047 3046 3045 3044 3043 3042 3042 3041 3040 3039 3038 3037 3036 3034 3033 3031 3029 3028 3027 3025 3024 3022 3020 3019 3017 3015 3013 3012 3010 3008 3006 3004 3002 3000 2998 2996 2994 2991 2989 2987 2985 2982 2980 2977 2974 2970 2966 2961
3068 3068 3069 3069 3069 3069 3068 3068 3068 3068 3068 3068 3067 3067 3066 3066 3066 3065 3065 3064 3063 3062 3061 3060 3059 3058 3057 3055 3054 3052 3051 3051 3050 3048 3047 3046 3044 3043 3043 3042 3042 3040 3040 3039 3039 3038 3036 3035 3034 3033 3031 3030 3028 3027 3025 3024 3023 3021 3020 3018 3016 3014 3013 3011 3010 3008 3006 3005 3003 3000 2998 2996 2994 2992 2991 2989 2987 2984 2982 2980 2977 2975 2972 2968 2963
3066 3067 3067 3067 3067 3067 3066 3066 3065 3065 3065 3064 3064 3063 3063 3062 3062 3062 3061 3061 3060 3059 3058 3056 3055 3054 3053 3051 3050 3048 3047 3047 3046 3045 3043 3042 3041 3040 3040 3040 3039 3038 3037 3037 3036 3035 3034 3033 3032 3030 3028 3027 3025 3024 3023 3021 3020 3019 3017 3015 3014 3012 3011 3009 3008 3006 3005 3003 3001 2999 2997 2995 2993 2991 2989 2987 2986 2984 2982 2980 2977 2975 2973 2970 2966
3065 3065 3064 3064 3064 3063 3063 3062 3062 3061 3061 3060 3060 3059 3059 3059 3059 3058 3058 3057 3056 3055 3054 3053 3052 3051 3049 3048 3046 3044 3043 3043 3042 3041 3041 3040 3038 3038 3037 3037 3036 3036 3035 3034 3033 3032 3031 3030 3029 3028 3026 3024 3023 3022 3020 3019 3018 3017 3015 3013 3012 3010 3009 3007 3006 3005 3003 3001 2999 2997 2996 2994 2992 2990 2988 2986 2984 2983 2982 2980 2978 2976 2974 2972 2969
3062 3061 3061 3060 3059 3059 3058 3058 3057 3057 3057 3056 3056 3056 3055 3055 3055 3054 3054 3053 3052 3051 3050 3049 3048 3047 3046 3044 3042 3040 3039 3039 3039 3038 3038 3037 3036 3035 3035 3034 3034 3033 3032 3031 3030 3029 3028 3027 3026 3025 3023 3022 3020 3019 3018 3017 3016 3014 3013 3011 3010 3008 3007 3006 3004 3003 3002 3000 2998 2996 2995 2993 2991 2989 2987 2985 2984 2982 2981 2980 2978 2976 2975 2973 2971
3058 3057 3057 3056 3055 3055 3054 3054 3053 3053 3053 3052 3052 3052 3052 3051 3051 3050 3050 3049 3048 3047 3046 3045 3045 3044 3042 3040 3038 3037 3036 3036 3036 3036 3036 3035 3034 3033 3032 3032 3031 3031 3030 3029 3028 3026 3025 3024 3023 3022 3021 3019 3018 3017 3016 3015 3014 3012 3011 3010 3008 3007 3005 3004 3003 3002 3001 2999 2997 2996 2994 2992 2990 2988 2987 2985 2983 2982 2981 2980 2978 2977 2976 2974 2972
3055 3054 3054 3053 3052 3052 3051 3051 3050 3050 3050 3049 3049 3048 3047 3047 3047 3046 3045 3045 3044 3043 3042 3042 3041 3040 3038 3036 3035 3034 3033 3033 3033 3032 3033 3033 3032 3031 3030 3029 3029 3028 3027 3026 3025 3024 3023 3022 3021 3019 3018 3017 3016 3015 3014 3013 3012 3010 3009 3008 3007 3005 3004 3003 3002 3001 2999 2998 2997 2995 2993 2992 2990 2988 2986 2985 2983 2982 2980 2979 2978 2977 2976 2975 2973
3052 3051 3050 3050 3049 3048 3048 3047 3047 3047 3046 3046 3045 3044 3043 3043 3042 3041 3040 3040 3039 3038 3038 3038 3037 3036 3035 3033 3032 3031 3031 3030 3030 3029 3029 3029 3029 3028 3027 3027 3026 3025 3025 3024 3022 3021 3020 3019 3018 3017 3015 3014 3014 3013 3012 3011 3010 3009 3008 3007 3006 3005 3003 3002 3001 3000 2999 2998 2996 2995 2993 2991 2990 2988 2986 2984 2983 2982 2980 2979 2978 2977 2976 2975 2973
3048 3047 3047 3046 3046 3045 3044 3044 3043 3043 3042 3041 3040 3040 3039 3038 3037 3036 3035 3035 3035 3034 3034 3034 3034 3032 3031 3030 3029 3029 3028 3028 3028 3027 3026 3026 3026 3025 3025 3024 3023 3022 3021 3020 3019 3018 3017 3016 3015 3014 3013 3012 3011 3010 3010 3009 3008 3007 3006 3006 3005 3004 3003 3002 3001 2999 2998 2997 2996 2995 2993 2991 2990 2988 2987 2985 2983 2982 2981 2979 2978 2977 2976 2975 2974
3044 3044 3043 3042 3041 3041 3041 3040 3039 3039 3038 3037 3035 3035 3034 3034 3033 3032 3032 3031 3031 3031 3031 3031 3030 3029 3028 3027 3027 3026 3026 3026 3025 3024 3024 3023 3022 3022 3022 3021 3020 3019 3018 3017 3016 3015 3014 3013 3012 3011 3010 3010 3009 3009 3008 3007 3007 3006 3005 3005 3004 3003 3002 3001 3000 2999 2998 2997 2995 2994 2993 2992 2990 2989 2987 2985 2984 2982 2981 2980 2978 2977 2976 2976 2975
3040 3040 3039 3038 3038 3037 3037 3036 3035 3034 3033 3032 3030 3029 3029 3030 3030 3029 3029 3029 3028 3027 3027 3027 3027 3026 3025 3024 3024 3024 3023 3023 3022 3021 3021 3020 3019 3019 3019 3018 3018 3016 3015 3014 3013 3012 3011 3011 3010 3009 3008 3008 3007 3007 3007 3006 3006 3005 3005 3004 3003 3003 3002 3001 3000 2999 2998 2996 2995 2994 2993 2991 2990 2989 2987 2986 2984 2983 2982 2980 2979 2978 2977 2976 2975
3036 3036 3036 3035 3034 3033 3032 3032 3031 3030 3029 3028 3026 3025 3026 3026 3026 3025 3025 3025 3024 3024 3024 3024 3023 3023 3022 3021 3021 3020 3020 3019 3019 3018 3017 3017 3016 3016 3015 3015 3014 3013 3012 3011 3010 3010 3009 3008 3008 3007 3007 3006 3006 3006 3005 3005 3005 3004 3004 3003 3002 3002 3001 3000 2999 2998 2997 2996 2994 2993 2992 2991 2990 2989 2988 2986 2985 2983 2982 2981 2980 2979 2977 2976 2975
3032 3032 3032 3031 3030 3029 3028 3027 3026 3026 3025 3024 3023 3023 3023 3023 3022 3022 3022 3021 3021 3021 3021 3020 3020 3019 3019 3018 3017 3017 3016 3016 3015 3015 3014 3014 3013 3012 3012 3012 3011 3010 3009 3009 3008 3007 3007 3006 3006 3005 3005 3005 3005 3005 3004 3004 3003 3003 3003 3002 3002 3001 3000 2999 2998 2997 2996 2995 2994 2993 2992 2990 2989 2989 2987 2986 2985 2984 2983 2981 2980 2979 2978 2977 2976
3029 3028 3028 3027 3026 3025 3024 3023 3022 3021 3021 3020 3019 3019 3019 3019 3018 3018 3018 3018 3018 3017 3017 3016 3016 3016 3015 3015 3014 3013 3012 3011 3011 3011 3011 3010 3010 3009 3009 3009 3008 3007 3007 3006 3006 3005 3004 3004 3004 3004 3004 3004 3004 3003 3003 3003 3002 3002 3002 3001 3001 3000 2999 2998 2997 2996 2995 2994 2993 2992 2991 2990 2989 2988 2987 2986 2985 2984 2983 2981 2980 2979 2978 2978 2977
3025 3025 3024 3023 3022 3021 3020 3019 3018 3017 3017 3016 3016 3016 3016 3015 3015 3014 3014 3014 3014 3014 3013 3012 3012 3012 3011 3011 3010 3009 3008 3007 3007 3007 3007 3007 3007 3007 3006 3006 3005 3005 3005 3004 3004 3003 3003 3003 3003 3003 3003 3003 3002 3002 3002 3002 3001 3001 3001 3000 3000 2999 2998 2997 2996 2995 2994 2993 2992 2991 2990 2989 2988 2987 2987 2985 2984 2984 2983 2982 2980 2979 2979 2978 2977
3021 3021 3020 3019 3018 3017 3017 3016 3015 3014 3013 3013 3012 3012 3012 3011 3011 3011 3010 3010 3010 3010 3009 3008 3008 3008 3008 3007 3006 3006 3004 3004 3003 3004 3004 3004 3004 3004 3003 3003 3003 3002 3002 3002 3002 3001 3001 3001 3002 3002 3001 3001 3001 3001 3001 3000 3000 3000 3000 2999 2999 2998 2998 2997 2996 2995 2994 2993 2991 2990 2990 2989 2988 2987 2986 2985 2984 2983 2983 2982 2981 2980 2979 2978 2978
3018 3017 3017 3016 3015 3014 3013 3012 3011 3011 3010 3009 3009 3009 3008 3008 3008 3007 3007 3007 3007 3006 3006 3005 3005 3005 3004 3004 3003 3002 3001 3001 3000 3000 3001 3001 3001 3001 3001 3001 3000 3000 3000 3000 3000 2999 2999 3000 3000 3000 3000 3000 3000 2999 2999 2999 2999 2999 2999 2998 2998 2997 2997 2996 2995 2994 2993 2992 2991 2990 2989 2988 2987 2986 2986 2985 2984 2983 2983 2982 2981 2980 2979 2979 2978
3014 3014 3014 3013 3012 3011 3010 3009 3008 3008 3007 3006 3006 3005 3005 3005 3005 3004 3004 3003 3003 3003 3003 3003 3002 3002 3001 3001 3000 3000 2999 2998 2997 2997 2997 2998 2998 2998 2998 2998 2998 2998 2998 2998 2998 2998 2998 2998 2998 2999 2998 2998 2998 2998 2998 2998 2998 2998 2997 2997 2997 2996 2996 2995 2994 2993 2992 2991 2990 2989 2988 2987 2987 2986 2985 2984 2983 2983 2982 2982 2981 2980 2980 2979 2978
3011 3010 3010 3009 3009 3008 3007 3006 3006 3005 3004 3004 3003 3003 3002 3002 3002 3001 3001 3000 3000 3000 3000 3000 2999 2999 2999 2998 2997 2997 2997 2996 2994 2993 2993 2993 2994 2995 2995 2995 2996 2996 2996 2997 2997 2996 2996 2996 2997 2997 2997 2997 2997 2997 2997 2997 2996 2996 2996 2996 2995 2995 2994 2994 2993 2992 2991 2990 2989 2988 2988 2987 2986 2985 2985 2984 2983 2983 2982 2982 2981 2980 2980 2979 2979